DLH73U EDDB-LEAL

Flight info

Callsign DLH73U
Flight time N/A
Altitude 37000
Route KISUC1Z KISUC Z117 ORTAG/N0478F390 DCT BAMKI/N0479F380 DCT IBAGA DCT DKB N869 TEDGO/N0479F390 N869 NATOR DCT LUTIX DCT BENOT DCT NEMOS DCT GEVEA/N0478F330 DCT INCUS DCT BALSI/N0475F390 DCT RETNO DCT TUPOX DCT MTG DCT DIVKO DCT VATIR N852 PIVUS Z237 OKITI M603 GERVU
Aircraft A339/H-SADE1E2E3GHIJ3J5M1P2RWXY/LB2D1

Departure

Time N/A
Airport Berlin Brandenburg Airport (EDDB)

Arrival

Time 2026-05-07 13:15
Airport Alicante-Elche Miguel Hernández Airport (LEAL)
Time Latitude Longitude Altitude Speed Heading
2026-05-07 11:15 48.42599 8.85286 37030 ft 435 kts 242°
2026-05-07 11:15 48.40848 8.81612 37030 ft 435 kts 242°
2026-05-07 11:15 48.37328 8.74241 37031 ft 435 kts 242°
2026-05-07 11:16 48.33790 8.66860 37031 ft 435 kts 242°
2026-05-07 11:16 48.30266 8.59530 37031 ft 435 kts 242°
2026-05-07 11:17 48.26741 8.52219 37031 ft 435 kts 242°
2026-05-07 11:17 48.23193 8.44891 37031 ft 435 kts 241°
2026-05-07 11:18 48.19336 8.37865 37031 ft 441 kts 236°
2026-05-07 11:18 48.14986 8.31441 37033 ft 448 kts 230°
2026-05-07 11:19 48.10070 8.25584 37031 ft 456 kts 224°
2026-05-07 11:19 48.04770 8.20374 37031 ft 459 kts 221°
2026-05-07 11:20 47.99435 8.15252 37031 ft 459 kts 221°
2026-05-07 11:20 47.94096 8.10132 37031 ft 459 kts 221°
2026-05-07 11:21 47.88812 8.05074 37029 ft 459 kts 221°
2026-05-07 11:21 47.83479 7.99981 37030 ft 459 kts 221°
2026-05-07 11:22 47.78093 7.94850 37031 ft 459 kts 221°
2026-05-07 11:22 47.72770 7.89791 37031 ft 459 kts 221°
2026-05-07 11:23 47.67400 7.84699 37031 ft 459 kts 221°
2026-05-07 11:23 47.62044 7.79635 37031 ft 459 kts 221°
2026-05-07 11:24 47.56683 7.74577 37031 ft 459 kts 221°
2026-05-07 11:24 47.51310 7.69521 37031 ft 459 kts 221°
2026-05-07 11:25 47.45978 7.64515 37031 ft 459 kts 221°
2026-05-07 11:25 47.40610 7.59488 37031 ft 459 kts 221°
2026-05-07 11:26 47.35220 7.54452 37031 ft 459 kts 221°
2026-05-07 11:26 47.29840 7.49437 37031 ft 459 kts 221°
2026-05-07 11:27 47.24484 7.44438 37031 ft 457 kts 222°
2026-05-07 11:27 47.19399 7.38997 37031 ft 450 kts 227°
2026-05-07 11:28 47.14846 7.33026 37034 ft 444 kts 232°
2026-05-07 11:28 47.10704 7.26407 37031 ft 439 kts 238°
2026-05-07 11:29 47.06921 7.19436 37031 ft 437 kts 239°
2026-05-07 11:29 47.03143 7.12469 37031 ft 437 kts 239°
2026-05-07 11:30 46.99369 7.05566 37031 ft 437 kts 239°
2026-05-07 11:30 46.95563 6.98622 37031 ft 437 kts 239°
2026-05-07 11:31 46.91535 6.91895 37031 ft 443 kts 234°
2026-05-07 11:31 46.87085 6.85796 37029 ft 449 kts 229°
2026-05-07 11:32 46.79834 6.77147 37031 ft 450 kts 227°
2026-05-07 11:33 46.74995 6.71398 37031 ft 450 kts 227°
2026-05-07 11:33 46.70163 6.65671 37031 ft 450 kts 227°
2026-05-07 11:34 46.65332 6.59957 37031 ft 450 kts 227°
2026-05-07 11:34 46.60475 6.54228 37031 ft 450 kts 227°
2026-05-07 11:35 46.55618 6.48511 37031 ft 450 kts 227°
2026-05-07 11:35 46.50792 6.42843 37031 ft 450 kts 227°
2026-05-07 11:36 46.45922 6.37137 37031 ft 450 kts 227°
2026-05-07 11:36 46.41121 6.31525 37033 ft 451 kts 227°
2026-05-07 11:37 46.36275 6.25876 37031 ft 451 kts 227°
2026-05-07 11:37 46.31287 6.20322 37030 ft 456 kts 222°
2026-05-07 11:38 46.25732 6.15734 37031 ft 467 kts 213°
2026-05-07 11:38 46.19611 6.12401 37031 ft 479 kts 204°
2026-05-07 11:39 46.13059 6.10447 37032 ft 488 kts 197°
2026-05-07 11:39 46.06354 6.08989 37031 ft 488 kts 197°
2026-05-07 11:40 45.99683 6.07534 37031 ft 488 kts 197°
2026-05-07 11:40 45.92994 6.06052 37031 ft 488 kts 197°
2026-05-07 11:41 45.86445 6.04600 37029 ft 488 kts 197°
2026-05-07 11:41 45.79750 6.03120 37031 ft 488 kts 197°
2026-05-07 11:42 45.73107 6.01655 37031 ft 488 kts 197°
2026-05-07 11:42 45.66408 6.00180 37031 ft 488 kts 197°
2026-05-07 11:43 45.59716 5.98709 37031 ft 488 kts 197°
2026-05-07 11:43 45.53041 5.97244 37031 ft 488 kts 197°
2026-05-07 11:44 45.46390 5.95662 37031 ft 484 kts 200°
2026-05-07 11:44 45.39853 5.93622 37031 ft 483 kts 201°
2026-05-07 11:45 45.33301 5.91570 37031 ft 483 kts 201°
2026-05-07 11:45 45.26757 5.89530 37031 ft 483 kts 201°
2026-05-07 11:46 45.20224 5.87500 37031 ft 483 kts 201°
2026-05-07 11:46 45.13682 5.85471 37031 ft 483 kts 201°
2026-05-07 11:47 45.07165 5.83456 37031 ft 483 kts 201°
2026-05-07 11:47 45.00619 5.81436 37031 ft 483 kts 201°
2026-05-07 11:48 44.94077 5.79423 37031 ft 483 kts 201°
2026-05-07 11:48 44.87701 5.77465 37029 ft 483 kts 201°
2026-05-07 11:49 44.81144 5.75456 37030 ft 483 kts 201°
2026-05-07 11:49 44.74620 5.73462 37031 ft 483 kts 201°
2026-05-07 11:50 44.68061 5.71461 37031 ft 483 kts 201°
2026-05-07 11:50 44.61533 5.69475 37031 ft 483 kts 201°
2026-05-07 11:51 44.54968 5.67482 37031 ft 483 kts 201°
2026-05-07 11:51 44.48439 5.65505 37031 ft 483 kts 201°
2026-05-07 11:52 44.41902 5.63515 37031 ft 482 kts 202°
2026-05-07 11:52 44.35503 5.60939 37031 ft 474 kts 208°
2026-05-07 11:53 44.29439 5.57679 37031 ft 471 kts 210°
2026-05-07 11:53 44.23357 5.54335 37031 ft 471 kts 210°
2026-05-07 11:54 44.17242 5.50991 37031 ft 471 kts 210°
2026-05-07 11:54 44.11188 5.47692 37031 ft 471 kts 210°
2026-05-07 11:55 44.05098 5.44382 37031 ft 471 kts 210°
2026-05-07 11:55 43.99017 5.41085 37031 ft 471 kts 210°
2026-05-07 11:56 43.92941 5.37794 37031 ft 471 kts 210°
2026-05-07 11:56 43.87053 5.34610 37031 ft 471 kts 210°
2026-05-07 11:57 43.80949 5.31317 37032 ft 472 kts 210°
2026-05-07 11:57 43.74883 5.28052 37031 ft 472 kts 210°
2026-05-07 11:58 43.68744 5.24755 37031 ft 472 kts 210°
2026-05-07 11:58 43.62664 5.21497 37031 ft 472 kts 210°
2026-05-07 11:59 43.56557 5.18232 37031 ft 472 kts 210°
2026-05-07 11:59 43.50456 5.14976 37031 ft 472 kts 210°
2026-05-07 12:00 43.44344 5.11704 37031 ft 471 kts 211°
2026-05-07 12:00 43.38497 5.07946 37031 ft 463 kts 217°
2026-05-07 12:01 43.33028 5.03430 37031 ft 456 kts 223°
2026-05-07 12:01 43.27827 4.98518 37031 ft 456 kts 223°
2026-05-07 12:02 43.22617 4.93611 37031 ft 456 kts 223°
2026-05-07 12:02 43.17408 4.88722 37031 ft 456 kts 223°
2026-05-07 12:03 43.12203 4.83849 37031 ft 456 kts 223°
2026-05-07 12:03 43.07000 4.79009 37031 ft 457 kts 222°
2026-05-07 12:04 43.01496 4.74568 37032 ft 462 kts 218°
2026-05-07 12:04 42.95916 4.70340 37031 ft 462 kts 218°
2026-05-07 12:05 42.90314 4.66102 37031 ft 462 kts 218°
2026-05-07 12:05 42.84876 4.61995 37030 ft 462 kts 218°
2026-05-07 12:06 42.79256 4.57759 37031 ft 462 kts 218°
2026-05-07 12:06 42.73671 4.53557 37031 ft 462 kts 218°
2026-05-07 12:07 42.68054 4.49340 37031 ft 462 kts 218°
2026-05-07 12:07 42.62441 4.45135 37031 ft 462 kts 218°
2026-05-07 12:08 42.56860 4.40962 37031 ft 462 kts 218°
2026-05-07 12:08 42.51240 4.36768 37031 ft 462 kts 218°
2026-05-07 12:09 42.45672 4.32622 37033 ft 462 kts 217°
2026-05-07 12:09 42.40066 4.28456 37031 ft 462 kts 217°
2026-05-07 12:10 42.34426 4.24274 37031 ft 462 kts 217°
2026-05-07 12:10 42.28828 4.20131 37031 ft 462 kts 217°
2026-05-07 12:11 42.23195 4.15970 37031 ft 462 kts 217°
2026-05-07 12:11 42.17581 4.11833 37031 ft 462 kts 217°
2026-05-07 12:12 42.11935 4.07682 37031 ft 462 kts 217°
2026-05-07 12:12 42.06308 4.03553 37031 ft 462 kts 217°
2026-05-07 12:13 42.00699 3.99445 37031 ft 462 kts 217°
2026-05-07 12:13 41.95050 3.95316 37031 ft 462 kts 217°
2026-05-07 12:14 41.89515 3.91370 37030 ft 464 kts 216°
2026-05-07 12:14 41.83744 3.87505 37030 ft 465 kts 215°
2026-05-07 12:15 41.77986 3.83662 37031 ft 465 kts 215°
2026-05-07 12:15 41.72235 3.79817 37031 ft 465 kts 215°
2026-05-07 12:16 41.66455 3.75953 37031 ft 465 kts 215°
2026-05-07 12:16 41.60713 3.72121 37031 ft 465 kts 215°
2026-05-07 12:17 41.54959 3.68288 37031 ft 465 kts 215°
2026-05-07 12:17 41.49171 3.64440 37031 ft 465 kts 215°
2026-05-07 12:18 41.43425 3.60628 37031 ft 465 kts 215°
2026-05-07 12:18 41.37670 3.56818 37031 ft 465 kts 215°
2026-05-07 12:19 41.31878 3.52991 37031 ft 465 kts 215°
2026-05-07 12:19 41.26125 3.49197 37031 ft 465 kts 215°
2026-05-07 12:20 41.20330 3.45390 37031 ft 465 kts 214°
2026-05-07 12:20 41.14375 3.42032 37032 ft 471 kts 210°
2026-05-07 12:21 41.08292 3.38891 37031 ft 471 kts 210°
2026-05-07 12:21 41.02204 3.35752 37031 ft 471 kts 210°
2026-05-07 12:22 40.96114 3.32614 37033 ft 471 kts 210°
2026-05-07 12:22 40.90048 3.29495 37031 ft 472 kts 210°
2026-05-07 12:23 40.84027 3.26404 37030 ft 472 kts 210°
2026-05-07 12:23 40.77906 3.23267 37031 ft 472 kts 210°
2026-05-07 12:24 40.71813 3.20152 37031 ft 472 kts 210°
2026-05-07 12:24 40.65715 3.17040 37031 ft 472 kts 210°
2026-05-07 12:25 40.59750 3.13671 37031 ft 465 kts 214°
2026-05-07 12:25 40.54098 3.09702 37031 ft 462 kts 217°
2026-05-07 12:26 40.48488 3.05665 37031 ft 462 kts 217°
2026-05-07 12:26 40.42877 3.01640 37031 ft 462 kts 217°
2026-05-07 12:27 40.37268 2.97627 37031 ft 462 kts 217°
2026-05-07 12:27 40.31621 2.93594 37031 ft 462 kts 217°
2026-05-07 12:28 40.26016 2.89600 37031 ft 462 kts 217°
2026-05-07 12:28 40.20376 2.85589 37031 ft 462 kts 217°
2026-05-07 12:29 40.14761 2.81603 37031 ft 462 kts 217°
2026-05-07 12:29 40.09119 2.77606 37031 ft 462 kts 217°
2026-05-07 12:30 40.03504 2.73635 37031 ft 462 kts 217°
2026-05-07 12:30 39.97875 2.69662 37031 ft 462 kts 217°
2026-05-07 12:31 39.92247 2.65696 37031 ft 462 kts 217°
2026-05-07 12:31 39.86633 2.61749 37029 ft 462 kts 217°
2026-05-07 12:32 39.81020 2.57810 37030 ft 462 kts 217°
2026-05-07 12:32 39.75393 2.53868 37031 ft 462 kts 217°
2026-05-07 12:33 39.66902 2.47934 37031 ft 462 kts 217°
2026-05-07 12:33 39.61400 2.43824 37030 ft 455 kts 223°
2026-05-07 12:34 39.56502 2.38804 37030 ft 444 kts 231°
2026-05-07 12:34 39.52389 2.32995 37034 ft 435 kts 239°
2026-05-07 12:35 39.49073 2.26574 37032 ft 428 kts 246°
2026-05-07 12:35 39.46085 2.19954 37031 ft 428 kts 246°
2026-05-07 12:36 39.43088 2.13300 37031 ft 428 kts 246°
2026-05-07 12:36 39.40107 2.06701 37031 ft 428 kts 246°
2026-05-07 12:37 39.37100 2.00062 37031 ft 428 kts 246°
2026-05-07 12:37 39.34106 1.93469 37031 ft 428 kts 246°
2026-05-07 12:38 39.31090 1.86841 37031 ft 428 kts 246°
2026-05-07 12:38 39.28085 1.80252 37031 ft 428 kts 246°
2026-05-07 12:39 39.25065 1.73644 37031 ft 428 kts 246°
2026-05-07 12:39 39.22054 1.67071 37031 ft 428 kts 246°
2026-05-07 12:40 39.19037 1.60496 37031 ft 428 kts 246°
2026-05-07 12:40 39.15997 1.53887 37031 ft 428 kts 246°
2026-05-07 12:41 39.13025 1.47302 37031 ft 426 kts 249°
2026-05-07 12:41 39.10481 1.40501 37031 ft 421 kts 253°
2026-05-07 12:42 39.08322 1.33520 37034 ft 420 kts 254°
2026-05-07 12:42 39.06193 1.26553 37031 ft 420 kts 254°
2026-05-07 12:43 39.04059 1.19575 37031 ft 420 kts 254°
2026-05-07 12:43 39.01924 1.12608 37030 ft 420 kts 254°
2026-05-07 12:44 38.99777 1.05621 37030 ft 420 kts 254°
2026-05-07 12:44 38.97623 0.98630 37031 ft 420 kts 254°
2026-05-07 12:45 38.95478 0.91680 37031 ft 420 kts 254°
2026-05-07 12:45 38.93331 0.84736 37031 ft 420 kts 254°
2026-05-07 12:46 38.91176 0.77786 37031 ft 420 kts 254°
2026-05-07 12:46 38.89025 0.70871 37029 ft 420 kts 254°
2026-05-07 12:47 38.86861 0.63929 37030 ft 420 kts 254°
2026-05-07 12:47 38.84683 0.56961 37030 ft 420 kts 254°
2026-05-07 12:48 38.82435 0.50049 37030 ft 423 kts 251°
2026-05-07 12:48 38.79560 0.43448 37031 ft 429 kts 245°
2026-05-07 12:49 38.77596 0.39432 37031 ft 429 kts 245°
2026-05-07 12:49 38.77163 0.38552 37031 ft 429 kts 245°
2026-05-07 12:50 38.75580 0.35338 36883 ft 428 kts 245°
2026-05-07 12:50 38.73991 0.32116 36327 ft 430 kts 245°
2026-05-07 12:50 38.72555 0.28771 35533 ft 430 kts 248°
2026-05-07 12:50 38.71068 0.25458 34737 ft 433 kts 249°
2026-05-07 12:51 38.69981 0.21948 34083 ft 423 kts 259°
2026-05-07 12:51 38.69367 0.18323 33530 ft 415 kts 266°
2026-05-07 12:51 38.69143 0.14842 33030 ft 409 kts 272°
2026-05-07 12:51 38.69241 0.11461 32524 ft 404 kts 277°
2026-05-07 12:52 38.69675 0.07985 31960 ft 402 kts 283°
2026-05-07 12:52 38.70450 0.04598 31365 ft 401 kts 290°
2026-05-07 12:52 38.71537 0.01418 30796 ft 401 kts 296°
2026-05-07 12:52 38.72932 -0.01586 30187 ft 402 kts 302°
2026-05-07 12:53 38.74593 -0.04318 29567 ft 405 kts 308°
2026-05-07 12:53 38.76586 -0.06842 28923 ft 409 kts 315°
2026-05-07 12:53 38.78861 -0.09047 28247 ft 415 kts 321°
2026-05-07 12:53 38.81370 -0.10860 27662 ft 419 kts 328°
2026-05-07 12:54 38.84079 -0.12243 27162 ft 422 kts 335°
2026-05-07 12:54 38.86956 -0.13155 26664 ft 426 kts 343°
2026-05-07 12:54 38.89864 -0.13548 26190 ft 430 kts 351°
2026-05-07 12:54 38.92860 -0.13419 25720 ft 434 kts 358°
2026-05-07 12:55 38.95849 -0.12742 25254 ft 439 kts
2026-05-07 12:55 38.98758 -0.11446 24737 ft 449 kts 20°
2026-05-07 12:55 39.01310 -0.09037 23840 ft 473 kts 40°
2026-05-07 12:55 39.03168 -0.05503 22936 ft 491 kts 63°
2026-05-07 12:56 39.04094 -0.01303 22329 ft 494 kts 78°
2026-05-07 12:56 39.04426 0.03062 21844 ft 491 kts 88°
2026-05-07 12:56 39.04287 0.07448 21328 ft 487 kts 96°
2026-05-07 12:56 39.03708 0.11648 20815 ft 482 kts 105°
2026-05-07 12:57 39.02697 0.15712 20304 ft 476 kts 114°
2026-05-07 12:57 39.01283 0.19547 19794 ft 469 kts 122°
2026-05-07 12:57 38.99560 0.23004 19298 ft 461 kts 130°
2026-05-07 12:57 38.97541 0.26152 18808 ft 454 kts 137°
2026-05-07 12:58 38.95282 0.28955 18353 ft 446 kts 143°
2026-05-07 12:58 38.92885 0.31376 17867 ft 438 kts 149°
2026-05-07 12:58 38.90356 0.33428 17371 ft 430 kts 157°
2026-05-07 12:58 38.87653 0.34957 16853 ft 419 kts 167°
2026-05-07 12:59 38.84882 0.35787 16342 ft 407 kts 178°
2026-05-07 12:59 38.82129 0.35879 15836 ft 395 kts 191°
2026-05-07 12:59 38.79534 0.35248 15358 ft 383 kts 201°
2026-05-07 12:59 38.77959 0.34556 15061 ft 377 kts 207°
2026-05-07 13:00 38.77344 0.34218 14936 ft 375 kts 210°
2026-05-07 13:00 38.75153 0.32664 14449 ft 366 kts 219°
2026-05-07 13:00 38.73246 0.30545 13922 ft 358 kts 231°
2026-05-07 13:00 38.71868 0.27999 13424 ft 351 kts 243°
2026-05-07 13:01 38.70652 0.25295 12922 ft 349 kts 240°
2026-05-07 13:01 38.69341 0.22678 12405 ft 347 kts 239°
2026-05-07 13:01 38.68051 0.20134 11904 ft 345 kts 239°
2026-05-07 13:01 38.66753 0.17558 11449 ft 342 kts 239°
2026-05-07 13:02 38.65482 0.15022 11104 ft 335 kts 240°
2026-05-07 13:02 38.64246 0.12543 10772 ft 329 kts 240°
2026-05-07 13:02 38.63036 0.10108 10418 ft 322 kts 240°
2026-05-07 13:02 38.61860 0.07739 10212 ft 305 kts 240°
2026-05-07 13:03 38.60755 0.05516 10128 ft 287 kts 240°
2026-05-07 13:03 38.59715 0.03420 10067 ft 270 kts 240°
2026-05-07 13:03 38.58738 0.01449 9842 ft 261 kts 241°
2026-05-07 13:03 38.57776 -0.00495 9521 ft 257 kts 241°
2026-05-07 13:04 38.56828 -0.02409 9230 ft 256 kts 241°
2026-05-07 13:04 38.55877 -0.04332 8937 ft 256 kts 241°
2026-05-07 13:04 38.54928 -0.06246 8652 ft 256 kts 241°
2026-05-07 13:04 38.53976 -0.08166 8370 ft 255 kts 241°
2026-05-07 13:05 38.53029 -0.10072 8093 ft 254 kts 241°
2026-05-07 13:05 38.52081 -0.11978 7818 ft 254 kts 241°
2026-05-07 13:05 38.51136 -0.13879 7547 ft 253 kts 241°
2026-05-07 13:05 38.50196 -0.15767 7281 ft 252 kts 241°
2026-05-07 13:06 38.49264 -0.17638 7059 ft 249 kts 241°
2026-05-07 13:06 38.48346 -0.19478 7023 ft 240 kts 241°
2026-05-07 13:06 38.47477 -0.21202 7017 ft 230 kts 238°
2026-05-07 13:06 38.46294 -0.22523 7005 ft 229 kts 209°
2026-05-07 13:07 38.44707 -0.22956 6739 ft 242 kts 187°
2026-05-07 13:07 38.43010 -0.22975 6400 ft 248 kts 183°
2026-05-07 13:07 38.41279 -0.22932 6105 ft 250 kts 183°
2026-05-07 13:07 38.39530 -0.22871 5831 ft 253 kts 180°
2026-05-07 13:08 38.37780 -0.22586 5567 ft 256 kts 173°
2026-05-07 13:08 38.36039 -0.22112 5384 ft 254 kts 171°
2026-05-07 13:08 38.34341 -0.21616 5221 ft 252 kts 170°
2026-05-07 13:08 38.32628 -0.21115 4988 ft 252 kts 170°
2026-05-07 13:09 38.30907 -0.20718 4748 ft 250 kts 181°
2026-05-07 13:09 38.29232 -0.20925 4594 ft 242 kts 196°
2026-05-07 13:09 38.27614 -0.21442 4450 ft 238 kts 199°
2026-05-07 13:09 38.26032 -0.22004 4288 ft 234 kts 203°
2026-05-07 13:10 38.24705 -0.23112 4082 ft 225 kts 236°
2026-05-07 13:10 38.24113 -0.24872 4094 ft 219 kts 264°
2026-05-07 13:10 38.24105 -0.26807 4108 ft 219 kts 278°
2026-05-07 13:10 38.24375 -0.28722 4030 ft 220 kts 283°
2026-05-07 13:11 38.24696 -0.30596 3771 ft 219 kts 283°
2026-05-07 13:11 38.25000 -0.32501 3482 ft 220 kts 282°
2026-05-07 13:11 38.25271 -0.34375 3164 ft 213 kts 281°
2026-05-07 13:11 38.25522 -0.36216 2891 ft 205 kts 281°
2026-05-07 13:12 38.25755 -0.37960 2665 ft 199 kts 281°
2026-05-07 13:12 38.25990 -0.39698 2404 ft 198 kts 281°
2026-05-07 13:12 38.26218 -0.41376 2147 ft 190 kts 281°
2026-05-07 13:12 38.26440 -0.43000 1886 ft 184 kts 281°
2026-05-07 13:13 38.26658 -0.44590 1643 ft 176 kts 281°
2026-05-07 13:13 38.26861 -0.46064 1399 ft 166 kts 281°
2026-05-07 13:13 38.27050 -0.47459 1187 ft 155 kts 280°
2026-05-07 13:13 38.27209 -0.48763 1022 ft 143 kts 284°
2026-05-07 13:14 38.27394 -0.50003 819 ft 141 kts 282°
2026-05-07 13:14 38.27571 -0.51233 656 ft 141 kts 282°
2026-05-07 13:14 38.27737 -0.52455 454 ft 141 kts 282°
2026-05-07 13:14 38.27913 -0.53668 253 ft 138 kts 282°
2026-05-07 13:15 38.28081 -0.54838 160 ft 127 kts 279°
2026-05-07 13:15 38.28189 -0.55614 160 ft 45 kts 281°
2026-05-07 13:15 38.28206 -0.55753 160 ft 14 kts 271°
2026-05-07 13:15 38.28240 -0.55976 160 ft 31 kts 279°
2026-05-07 13:16 38.28278 -0.56244 160 ft 29 kts 282°
2026-05-07 13:16 38.28309 -0.56495 160 ft 27 kts 274°
2026-05-07 13:16 38.28350 -0.56710 159 ft 23 kts 264°
2026-05-07 13:16 38.28370 -0.56785 159 ft 5 kts 325°
2026-05-07 13:17 38.28406 -0.56815 160 ft 7 kts 314°
2026-05-07 13:17 38.28445 -0.56872 160 ft 9 kts 310°
2026-05-07 13:17 38.28491 -0.56935 160 ft 8 kts 322°
2026-05-07 13:17 38.28532 -0.56936 160 ft 5 kts 59°
2026-05-07 13:18 38.28531 -0.56883 160 ft 7 kts 96°
2026-05-07 13:18 38.28533 -0.56796 160 ft 10 kts 91°
2026-05-07 13:18 38.28511 -0.56708 159 ft 11 kts 109°
2026-05-07 13:18 38.28493 -0.56593 159 ft 14 kts 101°
2026-05-07 13:19 38.28476 -0.56456 159 ft 15 kts 96°
2026-05-07 13:19 38.28458 -0.56335 160 ft 13 kts 101°
2026-05-07 13:19 38.28443 -0.56214 160 ft 15 kts 99°
2026-05-07 13:19 38.28426 -0.56070 160 ft 15 kts 90°
2026-05-07 13:20 38.28431 -0.56052 160 ft 2 kts 44°
2026-05-07 13:20 38.28453 -0.56037 160 ft 5 kts 23°
2026-05-07 13:20 38.28503 -0.56019 160 ft 9 kts 17°
2026-05-07 13:20 38.28533 -0.55954 159 ft 10 kts 86°
2026-05-07 13:21 38.28536 -0.55889 160 ft 0 kts 54°
2026-05-07 13:21 38.28540 -0.55885 160 ft 2 kts 41°
2026-05-07 13:21 38.28572 -0.55870 160 ft 2 kts 360°
2026-05-07 13:21 38.28574 -0.55870 160 ft 0 kts
2026-05-07 13:22 38.28578 -0.55869 160 ft 0 kts 10°